"Pseudo-MPEC" for P110ClT

Created 2020 May 27 22:07:09 UT using Find_Orb

Click here for an explanation of pseudo-MPECs

 
 Astrometry: 
     P110ClT  C2020 05 20CPC[nv/H.df@(sl#8tCN4`$#E(4Nq7qH5-p1ssAstrometry's_!F51
     P110ClT  C2020 05 20VXG3JAVredacted;yUq#2_!Dclick0loXhere')lseTOJU_]saw)F51
     P110ClT  C2020 05 20:Sq?pV@ng3dy:@(am^G4+VMh2F)0*D=*;\UL#Im6gF*.)EUforgLF51
     P110ClT  C2020 05 20#UW3)yF)(03MrB/MH2P;;aDexplanation,[2X8AiLJhL.q\uw/mF51
     P110ClT ^C2020 05 25.37140216 01 04.872-15 05 15.18   ~5PK7 21.75GVNEOCP568
     P110ClT ^C2020 05 25.37329716 01 04.718-15 05 13.55   ~5PK7 21.98GVNEOCP568
     P110ClT ^C2020 05 25.37519016 01 04.565-15 05 11.92   ~5PK7 22.06GVNEOCP568

Station data:
(568) Mauna Kea  (N19.826116 W155.472200)  US/Hawaii.
(F51) Pan-STARRS 1, Haleakala  (N20.707235 W156.255910)  US/Hawaii.
   Observers N. Primak, A. Schultz, S. Watters, J. Thiel, T. Goggia. Measurer
   PS1 Science Consortium. 1.8-m Ritchey-Chrétien + CCD.

Orbital elements:  P110ClT
   Perihelion 2021 Jul 8.508798 +/- 323 TT = 12:12:40 (JD 2459404.008798)
Epoch 2020 May 25.0 TT = JDT 2458994.5   Earth MOID: 0.4006   Ma: 0.0913
M 193.10763286 +/- 110              (J2000 ecliptic)          AutoNEOCP
n   0.40754281 +/- 0.204            Peri.  179.40438 +/- 70
a   1.80171968 +/- 0.603            Node   235.26094 +/- 5.9
e   0.2288532 +/- 0.219             Incl.   21.76036 +/- 33
P   2.42/883.33d           H 19.9   G  0.15   U 11.7  SR
q 1.38939022 +/- 0.872    Q 2.21404915 +/- 10.7
From 7 observations 2020 May 20-25; mean residual 0".12
Residuals in arcseconds: 
200520 F51  .15+  .02+    200520 F51  .20-  .05+    200525 568  .02+  .04-    
200520 F51  .25+  .02+    200525 568  .02-  .04+    
200520 F51  .20-  .10-    200525 568  .00   .00     

Ephemerides (geocentric):
Date (UTC) HH   RA              Dec         delta   r     elong  mag " sig PA
---- -- -- --  -------------   -----------  ------ ------ -----  --- ---- ---
2020 05 27 22  15 57 45.221   -14 27 54.49  1.1985 2.2056 171.3 22.3  125  36
2020 05 27 23  15 57 41.983   -14 27 18.12  1.1985 2.2055 171.2 22.3  128  36
2020 05 28 00  15 57 38.745   -14 26 41.77  1.1986 2.2055 171.2 22.3  131  36
2020 05 28 01  15 57 35.508   -14 26 05.43  1.1986 2.2055 171.1 22.3  133  36
2020 05 28 02  15 57 32.272   -14 25 29.10  1.1987 2.2055 171.1 22.3  136  36
2020 05 28 03  15 57 29.038   -14 24 52.78  1.1987 2.2055 171.1 22.3  139  36
2020 05 28 04  15 57 25.804   -14 24 16.46  1.1987 2.2054 171.0 22.3  142  36
2020 05 28 05  15 57 22.572   -14 23 40.16  1.1988 2.2054 171.0 22.3  145  36
2020 05 28 06  15 57 19.340   -14 23 03.86  1.1988 2.2054 170.9 22.3  147  36
2020 05 28 07  15 57 16.110   -14 22 27.58  1.1989 2.2054 170.9 22.4  150  36
2020 05 28 08  15 57 12.880   -14 21 51.31  1.1989 2.2054 170.8 22.4  153  36
2020 05 28 09  15 57 09.652   -14 21 15.04  1.1990 2.2053 170.8 22.4  156  36
2020 05 28 10  15 57 06.425   -14 20 38.79  1.1990 2.2053 170.7 22.4  159  36
2020 05 28 11  15 57 03.199   -14 20 02.54  1.1990 2.2053 170.7 22.4  162  36
2020 05 28 12  15 56 59.974   -14 19 26.31  1.1991 2.2053 170.6 22.4  165  36
2020 05 28 13  15 56 56.750   -14 18 50.08  1.1991 2.2053 170.6 22.4  168  36
2020 05 28 14  15 56 53.527   -14 18 13.87  1.1992 2.2052 170.5 22.4  171  36
2020 05 28 15  15 56 50.306   -14 17 37.66  1.1992 2.2052 170.5 22.4  174  36
2020 05 28 16  15 56 47.085   -14 17 01.47  1.1993 2.2052 170.4 22.4  177  36
2020 05 28 17  15 56 43.866   -14 16 25.28  1.1993 2.2052 170.4 22.4  180  36
2020 05 28 18  15 56 40.648   -14 15 49.11  1.1994 2.2052 170.4 22.4  183  36
2020 05 28 19  15 56 37.431   -14 15 12.95  1.1994 2.2051 170.3 22.4  186  36
2020 05 28 20  15 56 34.215   -14 14 36.79  1.1995 2.2051 170.3 22.4  189  36
2020 05 28 21  15 56 31.000   -14 14 00.65  1.1995 2.2051 170.2 22.4  193  36
2020 05 28 22  15 56 27.787   -14 13 24.52  1.1996 2.2051 170.2 22.4  196  36
2020 05 28 23  15 56 24.574   -14 12 48.40  1.1996 2.2050 170.1 22.4  199  36
2020 05 29 00  15 56 21.363   -14 12 12.29  1.1997 2.2050 170.1 22.4  202  36
2020 05 29 01  15 56 18.153   -14 11 36.19  1.1997 2.2050 170.0 22.4  205  36
2020 05 29 02  15 56 14.945   -14 11 00.10  1.1998 2.2050 170.0 22.4  209  36
2020 05 29 03  15 56 11.737   -14 10 24.02  1.1998 2.2050 169.9 22.4  212  36
2020 05 29 04  15 56 08.531   -14 09 47.95  1.1999 2.2049 169.9 22.4  215  36
2020 05 29 05  15 56 05.326   -14 09 11.90  1.1999 2.2049 169.8 22.4  219  36
2020 05 29 06  15 56 02.122   -14 08 35.85  1.2000 2.2049 169.8 22.4  222  36
2020 05 29 07  15 55 58.919   -14 07 59.82  1.2001 2.2049 169.7 22.4  225  36
2020 05 29 08  15 55 55.718   -14 07 23.79  1.2001 2.2049 169.7 22.4  229  36
2020 05 29 09  15 55 52.518   -14 06 47.78  1.2002 2.2048 169.6 22.4  232  36
2020 05 29 10  15 55 49.319   -14 06 11.78  1.2002 2.2048 169.6 22.4  235  36
2020 05 29 11  15 55 46.121   -14 05 35.79  1.2003 2.2048 169.5 22.4  239  36
2020 05 29 12  15 55 42.925   -14 04 59.81  1.2003 2.2048 169.5 22.4  242  36
2020 05 29 13  15 55 39.730   -14 04 23.85  1.2004 2.2048 169.4 22.4  246  36
2020 05 29 14  15 55 36.536   -14 03 47.89  1.2005 2.2047 169.4 22.4  249  36
2020 05 29 15  15 55 33.344   -14 03 11.95  1.2005 2.2047 169.3 22.4  253  36
2020 05 29 16  15 55 30.152   -14 02 36.02  1.2006 2.2047 169.3 22.4  256  36
2020 05 29 17  15 55 26.962   -14 02 00.10  1.2006 2.2047 169.3 22.4  260  36
2020 05 29 18  15 55 23.774   -14 01 24.19  1.2007 2.2046 169.2 22.4  263  36
2020 05 29 19  15 55 20.587   -14 00 48.29  1.2008 2.2046 169.2 22.4  267  36
2020 05 29 20  15 55 17.401   -14 00 12.40  1.2008 2.2046 169.1 22.4  271  36
2020 05 29 21  15 55 14.216   -13 59 36.53  1.2009 2.2046 169.1 22.4  274  36